Temperature
5 5 4 5 5 4 4 4 4 5 5 7 7 6 6 7 7 7 7 7 7 7 7 7 7 7 7 6 6 6 5 5 5 5 5 5 4 4 4 4 4 4 4 4
4 5 5 5 5 5 5 5 4 5 5 6 7 7 6 6 6 6 7 7 7 7 7 7 7 6 6 6 6 5 5 5 5 5 4 4 4 4 4 4 4 4 4 4
4 4 5 4 5 5 4 4 5 5 6 6 5 5 6 6 6 6 6 6 6 7 7 7 6 6 6 6 6 5 5 5 5 4 4 4 4 4 4 4 4 4 4 3
3 4 4 6 6 6 5 5 5 5 5 5 6 6 7 7 6 6 6 6 6 6 6 6 6 6 6 6 5 5 5 5 4 4 4 4 4 4 4 4 3 3 3 3
2 3 4 5 5 5 5 5 5 5 5 6 6 6 6 7 7 6 6 6 6 6 6 6 6 6 6 5 5 5 4 4 4 4 4 4 3 3 3 3 3 3 3 2
2 3 5 6 6 5 5 5 5 5 5 5 4 3 4 6 7 7 6 6 6 6 6 6 5 5 5 5 4 4 4 4 4 4 3 3 3 3 3 3 2 2 2 2
2 3 4 5 5 5 5 6 6 6 6 5 4 5 6 6 6 6 6 6 6 5 5 5 5 4 4 4 4 4 3 3 3 3 3 3 3 2 2 2 2 2 2 2
2 3 4 4 4 4 5 6 6 6 6 6 6 6 6 6 6 6 5 5 5 5 4 4 4 4 4 3 3 3 3 3 3 3 3 2 2 2 2 2 1 1 1 1
2 4 4 4 4 5 6 6 6 6 6 6 5 5 5 5 5 5 5 5 4 4 4 4 3 3 3 3 3 3 3 2 2 2 2 2 2 2 1 1 1 0 0 0
1 2 3 4 5 5 5 5 5 5 5 5 5 5 5 5 5 4 4 4 4 4 3 3 3 3 3 2 2 2 2 2 2 1 1 1 1 1 1 1 0 -0 -0 -0
1 1 2 4 4 5 4 4 4 5 5 4 5 4 4 4 4 4 4 3 3 3 3 3 2 2 2 2 2 2 2 1 1 1 1 1 1 0 0 0 -0 -0 -0 -1
1 2 2 3 4 4 4 4 4 4 4 4 4 4 4 3 3 3 3 3 3 3 2 2 2 2 2 1 1 1 1 1 0 0 0 0 -0 -0 -0 -0 -1 -1 -1 -1
3 3 4 4 3 3 3 3 3 3 3 3 3 3 3 3 3 3 3 2 2 2 2 2 2 1 1 1 0 0 0 -0 -0 -0 -0 -1 -1 -1 -1 -1 -1 -1 -1 -1
3 3 2 2 2 3 3 3 2 2 2 2 2 2 2 2 2 2 2 2 2 1 1 1 1 1 1 0 0 -0 -0 -1 -1 -1 -1 -1 -1 -2 -2 -2 -2 -1 -1 -1
2 2 2 2 2 2 2 2 2 2 2 2 2 2 2 2 2 1 1 1 1 1 1 0 0 0 -0 -0 -1 -1 -1 -1 -1 -1 -2 -2 -2 -2 -2 -2 -2 -2 -2 -1
1 1 1 1 1 1 1 1 1 1 1 1 1 1 1 1 1 1 1 0 0 0 0 -0 -0 -0 -1 -1 -1 -1 -1 -2 -2 -2 -2 -2 -2 -3 -3 -3 -3 -3 -3 -2
-0 -1 -1 -1 -0 -0 -0 0 0 0 0 0 0 0 0 0 0 -0 -0 -0 -0 -0 -1 -1 -1 -1 -1 -1 -2 -2 -2 -2 -2 -3 -3 -3 -3 -3 -4 -4 -4 -4 -3 -3
-0 -0 -1 -1 -1 -1 -1 -0 -0 -0 -0 -1 -0 -0 -1 -1 -1 -1 -1 -1 -1 -1 -1 -1 -2 -2 -2 -2 -2 -2 -2 -2 -3 -3 -3 -4 -4 -4 -4 -4 -4 -4 -4 -4
-1 -1 -1 -1 -1 -1 -2 -1 -1 -1 -1 -1 -1 -1 -1 -1 -1 -2 -2 -2 -2 -2 -2 -2 -2 -2 -3 -3 -3 -3 -3 -3 -3 -4 -4 -4 -4 -4 -5 -5 -5 -5 -5 -4
-2 -2 -2 -2 -2 -2 -2 -2 -2 -2 -2 -2 -2 -2 -2 -2 -2 -2 -2 -3 -3 -3 -3 -3 -3 -3 -3 -3 -3 -4 -4 -4 -4 -4 -4 -4 -5 -5 -5 -5 -5 -5 -5 -5
-3 -3 -3 -3 -3 -3 -3 -3 -3 -3 -3 -3 -3 -3 -3 -3 -3 -3 -3 -3 -3 -3 -3 -4 -4 -4 -4 -4 -4 -4 -4 -4 -5 -5 -5 -5 -5 -5 -5 -5 -5 -5 -5 -5
-4 -4 -4 -4 -4 -4 -4 -4 -4 -4 -4 -4 -4 -4 -4 -4 -4 -4 -4 -4 -4 -4 -4 -4 -4 -4 -4 -4 -5 -5 -5 -5 -5 -5 -5 -6 -6 -6 -6 -6 -5 -5 -5 -5
-4 -4 -4 -4 -5 -5 -5 -5 -5 -5 -5 -5 -5 -5 -5 -5 -5 -5 -5 -4 -4 -5 -5 -5 -5 -5 -5 -5 -5 -5 -5 -5 -5 -6 -6 -6 -6 -6 -6 -6 -6 -6 -5 -5
-5 -5 -5 -5 -5 -5 -5 -5 -6 -6 -6 -6 -6 -5 -5 -5 -5 -5 -5 -5 -5 -5 -5 -5 -5 -5 -5 -5 -6 -6 -6 -6 -6 -6 -6 -6 -6 -6 -6 -6 -6 -6 -6 -5
-5 -5 -6 -6 -6 -6 -6 -6 -6 -6 -6 -6 -6 -6 -6 -6 -6 -6 -6 -6 -6 -6 -6 -6 -6 -6 -6 -6 -6 -6 -6 -6 -6 -6 -6 -7 -6 -6 -6 -6 -6 -6 -6 -6
-6 -6 -6 -7 -7 -7 -7 -7 -7 -7 -7 -7 -7 -7 -7 -7 -7 -7 -6 -6 -6 -6 -6 -6 -6 -6 -6 -6 -6 -6 -6 -6 -6 -7 -7 -7 -7 -7 -7 -6 -6 -6 -6 -6
-7 -7 -7 -7 -7 -8 -8 -8 -8 -8 -8 -8 -8 -8 -7 -7 -7 -7 -7 -7 -7 -7 -7 -7 -7 -7 -7 -7 -7 -7 -7 -7 -7 -7 -7 -7 -7 -7 -7 -7 -6 -6 -6 -6
Wind_Speed
3 2 4 6 8 10 10 10 9 9 10 12 8 6 5 4 4 3 4 4 4 4 4 4 4 4 3 3 2 2 2 2 2 2 1 1 1 1 1 0 0 1 1 1
2 3 4 6 9 12 12 11 11 10 12 10 6 3 4 4 3 4 4 5 4 4 4 4 4 4 3 2 2 1 1 1 1 1 1 1 1 1 1 1 0 0 1 1
3 2 0 8 12 13 8 9 10 14 13 5 4 5 6 5 4 4 5 5 5 5 5 4 4 4 3 2 1 1 1 2 1 1 2 2 1 1 1 1 1 1 1 1
3 3 8 8 5 10 11 10 11 9 8 7 8 7 5 5 4 4 4 4 4 4 4 3 3 2 1 1 2 2 2 3 2 1 2 2 2 2 2 2 1 1 1 1
4 5 7 7 3 6 8 9 11 12 11 8 4 1 4 5 4 5 4 4 3 3 2 2 1 2 2 3 3 3 3 3 2 1 1 2 2 2 2 2 2 1 1 1
4 5 8 6 3 3 4 6 7 10 10 8 3 2 7 5 3 3 2 1 1 1 2 2 2 2 3 3 3 2 2 2 2 2 1 1 2 2 2 2 2 2 2 1
6 6 8 6 2 5 5 7 3 6 7 6 7 8 5 2 2 2 1 0 1 2 2 1 2 2 3 3 2 2 2 3 3 3 2 1 2 2 1 2 2 2 2 2
5 6 8 2 4 6 6 2 1 2 4 5 5 3 2 2 1 1 0 1 1 2 1 2 2 3 2 2 2 2 3 3 3 3 3 3 2 2 2 2 2 2 2 3
6 6 3 2 3 4 1 1 1 0 1 3 2 2 2 2 1 1 0 0 1 1 1 2 1 2 1 2 2 3 3 3 3 3 3 3 2 2 2 2 1 2 2 2
5 6 5 6 4 3 2 1 1 1 0 1 2 2 1 1 1 0 1 0 1 1 1 1 1 1 1 1 1 2 2 2 3 3 3 3 2 2 2 2 2 2 2 3
6 6 5 5 4 3 2 1 2 1 1 1 2 1 1 1 1 1 0 1 1 1 0 1 1 2 2 2 2 2 2 2 2 2 2 3 3 2 2 2 3 3 3 3
8 6 5 7 6 3 2 2 2 1 1 0 1 2 1 1 1 1 0 1 1 1 1 1 1 2 2 2 1 1 2 2 2 2 2 2 3 4 5 5 7 7 7 6
6 5 5 5 4 3 3 2 1 1 1 1 1 1 1 1 1 0 1 1 0 0 1 1 1 1 2 2 1 1 1 2 2 2 2 3 3 3 5 6 7 7 7 7
2 1 3 4 4 3 2 1 1 0 0 0 0 0 0 0 1 1 0 1 1 1 1 1 1 2 2 2 2 2 2 2 2 2 2 2 3 3 3 4 5 5 6 8
3 2 3 3 2 1 0 0 1 1 1 2 1 1 1 1 0 1 1 1 1 1 1 1 2 3 3 2 2 2 2 2 2 2 2 3 3 3 3 4 4 5 5 6
2 1 1 1 2 1 0 0 1 1 1 0 1 1 0 0 0 1 1 1 1 1 2 2 2 3 3 2 2 2 2 4 4 2 2 3 3 3 3 4 4 4 5 5
1 1 1 2 2 2 2 2 3 2 1 1 1 1 1 1 1 1 2 2 1 1 1 2 3 3 2 2 2 2 2 3 5 4 2 3 3 3 3 4 4 5 5 6
3 3 3 3 2 1 1 1 1 1 1 1 1 1 1 1 1 1 2 2 2 2 2 2 3 3 2 2 2 2 2 2 2 2 3 3 3 3 3 4 5 5 5 6
1 1 1 1 1 1 0 1 0 0 0 1 1 1 0 1 1 1 1 1 2 3 3 3 5 3 3 3 3 2 2 2 3 3 3 4 4 3 3 4 5 5 5 5
1 1 1 1 2 1 1 1 1 1 1 1 1 1 1 1 1 1 1 1 2 3 3 3 3 3 3 3 4 2 2 2 2 3 3 3 3 4 4 4 5 5 5 5
2 2 2 2 2 2 1 1 1 1 2 1 1 0 1 2 2 2 2 3 3 3 3 4 3 2 2 3 4 2 2 2 2 2 3 3 4 4 4 5 5 5 5 5
2 2 2 2 3 2 2 2 2 2 2 2 2 1 1 2 2 2 2 3 4 5 3 2 2 3 4 4 2 2 2 2 3 3 3 3 4 4 5 5 5 5 5 5
2 2 3 3 3 2 3 3 3 2 2 1 1 1 2 2 2 2 3 3 3 5 4 3 4 6 6 3 2 2 2 3 3 3 3 4 4 4 5 5 5 5 5 5
3 3 3 3 3 3 3 3 3 3 2 2 2 2 2 2 2 2 3 5 6 6 3 4 6 6 6 2 2 2 2 3 3 3 4 4 4 4 4 5 5 5 5 5
3 3 3 3 3 2 2 2 3 3 3 2 3 3 3 2 2 3 4 4 5 6 4 5 6 7 4 2 2 3 3 3 4 4 4 4 4 4 4 5 5 5 5 5
3 3 2 2 2 1 1 2 2 2 2 3 3 3 3 3 3 3 3 4 4 5 4 4 4 5 3 3 3 3 3 4 4 4 4 4 5 5 5 5 5 5 5 4
3 3 3 3 3 3 2 2 2 2 3 3 3 4 4 4 4 4 4 4 4 4 4 4 4 3 3 3 3 3 4 4 4 4 4 4 4 4 5 5 5 4 4 4
Wind_Direction
237 211 177 204 211 200 206 207 210 237 242 259 258 253 265 270 277 284 286 287 279 276 283 293 298 297 288 282 275 266 254 258 260 266 277 270 308 322 316 347 176 182 166 168
261 228 218 236 229 215 223 225 234 255 264 254 255 248 268 271 275 281 277 272 275 280 291 296 297 300 306 306 283 255 234 281 288 329 354 355 346 354 360 24 56 132 136 150
225 237 331 255 226 206 210 214 207 232 245 250 254 248 249 255 259 265 274 280 279 279 279 275 279 284 275 267 297 53 23 360 9 20 9 6 12 31 28 16 31 58 72 81
170 148 223 243 211 200 214 231 220 233 246 236 236 242 239 233 237 256 271 281 286 285 291 296 296 303 349 67 56 42 31 20 18 29 18 14 31 26 12 25 42 45 36 33
172 210 263 280 232 186 202 246 229 231 247 249 241 293 277 250 240 240 253 265 271 276 284 308 350 13 52 56 50 38 23 16 10 19 23 18 25 20 10 20 19 17 16 21
177 194 229 245 235 180 148 261 238 216 234 234 169 227 262 263 256 256 266 274 305 343 18 18 4 48 71 48 47 27 359 358 5 17 46 22 2 359 3 12 357 358 353 342
205 220 253 258 209 130 174 244 248 210 218 204 197 217 240 238 232 222 229 256 63 64 46 2 14 67 65 39 10 348 9 21 18 17 28 20 8 1 0 3 2 357 344 338
191 213 247 260 130 176 224 265 247 216 207 203 216 223 206 203 205 183 56 38 66 75 25 7 50 81 63 7 341 15 34 32 20 14 15 17 20 359 358 8 7 351 343 335
204 221 275 203 227 253 246 233 258 332 268 186 194 212 208 207 199 198 172 106 64 78 20 12 48 89 76 332 5 34 37 25 12 10 11 10 11 359 354 355 349 327 322 320
248 264 279 274 281 311 319 269 294 17 359 162 184 192 196 174 152 25 314 245 66 73 31 355 16 38 21 351 29 47 28 7 4 5 360 358 356 353 341 319 313 311 308 304
252 272 293 274 248 263 304 329 344 358 39 150 151 160 183 189 209 238 307 349 65 99 322 316 1 15 6 13 36 32 11 356 351 350 344 343 342 333 317 302 286 289 286 280
237 238 235 262 263 248 226 260 272 299 338 346 169 199 191 201 222 202 195 36 41 24 347 333 358 360 354 2 24 27 358 347 339 336 334 335 333 332 331 319 314 308 306 296
242 249 246 265 269 263 243 241 253 257 216 273 290 204 187 259 293 29 61 63 46 322 327 343 3 348 338 343 353 346 318 320 323 328 328 327 324 319 320 329 329 324 317 312
264 257 267 270 270 273 258 242 201 133 7 88 305 310 111 88 48 67 38 327 341 2 3 9 2 331 328 345 352 341 329 321 323 315 313 312 311 308 307 312 320 325 320 317
265 242 231 247 262 272 281 124 102 39 3 8 32 75 82 90 69 318 340 359 16 25 17 10 347 326 335 342 338 330 327 323 315 310 311 311 313 317 315 312 313 314 319 318
275 280 168 193 221 249 279 196 212 250 252 317 19 16 357 117 55 359 355 14 21 348 331 331 315 313 326 327 324 323 316 315 321 320 318 321 322 321 319 315 314 314 313 315
171 215 207 223 243 257 250 240 224 219 210 199 213 191 105 82 49 1 339 338 314 289 308 302 299 312 325 323 310 304 308 312 318 320 318 315 315 314 312 312 308 306 307 313
213 209 199 191 199 224 287 285 198 173 202 215 164 133 135 148 210 292 313 329 345 350 333 308 307 320 323 317 305 296 297 301 307 307 309 311 310 309 308 308 308 304 307 311
65 136 148 132 142 137 128 306 358 44 56 116 117 129 203 226 249 285 320 343 337 320 315 315 325 335 323 314 316 296 294 298 304 306 306 307 313 314 310 308 306 304 302 305
42 70 83 69 53 72 85 31 54 58 49 87 99 75 23 342 331 328 337 314 293 283 291 308 319 315 308 303 314 296 290 291 294 302 307 302 302 304 305 304 304 304 303 300
55 74 81 78 61 51 58 65 76 57 28 46 77 67 322 330 335 324 313 308 312 314 314 318 321 307 304 302 312 299 288 289 292 291 293 295 297 299 302 303 303 304 303 302
75 89 86 83 78 52 30 41 62 60 45 37 30 25 10 343 336 330 305 283 298 316 323 306 297 303 312 316 304 292 287 287 289 289 288 290 292 294 298 301 302 302 302 301
85 85 76 73 74 56 34 34 40 48 41 19 1 350 330 307 303 300 306 308 311 315 318 299 305 315 320 326 309 294 291 289 287 286 286 287 288 288 290 293 295 296 298 299
64 61 60 60 64 61 40 16 18 23 18 357 342 328 316 316 318 305 284 301 315 315 309 306 316 319 323 322 304 295 291 289 286 284 285 286 286 287 288 290 293 296 299 300
62 61 58 57 53 41 27 14 17 16 13 5 352 344 335 315 295 301 305 308 315 320 315 316 320 321 322 307 300 292 287 281 282 285 284 286 287 288 289 291 293 295 297 297
53 48 40 35 35 29 11 11 9 358 356 352 346 344 341 335 323 315 312 312 312 319 320 311 310 312 306 296 290 286 282 286 292 291 287 288 287 286 288 290 291 291 291 293
48 46 44 35 25 19 12 7 2 346 340 335 327 326 328 329 326 321 316 314 314 313 310 308 304 299 293 290 288 286 283 282 282 281 281 282 283 285 287 288 289 288 289 291
Height
1446 1446 1449 1449 1450 1453 1455 1455 1456 1447 1443 1433 1431 1430 1429 1428 1426 1425 1424 1423 1421 1419 1418 1417 1415 1413 1412 1410 1409 1408 1406 1404 1403 1402 1401 1400 1400 1399 1398 1397 1396 1396 1396 1397
1447 1445 1446 1446 1444 1446 1446 1446 1446 1443 1437 1428 1428 1428 1427 1426 1425 1423 1421 1420 1419 1418 1416 1415 1413 1411 1410 1408 1407 1406 1404 1403 1401 1400 1399 1398 1398 1397 1397 1396 1395 1395 1394 1394
1448 1446 1444 1444 1435 1437 1439 1436 1437 1436 1428 1425 1426 1425 1424 1423 1423 1421 1419 1418 1417 1415 1414 1413 1411 1409 1408 1407 1405 1404 1403 1401 1400 1399 1398 1397 1397 1396 1395 1395 1394 1393 1393 1392
1449 1448 1446 1427 1422 1425 1427 1427 1427 1424 1421 1421 1421 1421 1421 1421 1420 1419 1418 1416 1415 1413 1412 1411 1410 1408 1407 1406 1404 1403 1401 1400 1399 1398 1397 1396 1396 1395 1394 1393 1392 1392 1391 1391
1446 1444 1435 1425 1421 1422 1425 1423 1419 1419 1417 1417 1418 1419 1419 1418 1417 1417 1416 1415 1414 1412 1411 1409 1408 1407 1406 1405 1403 1402 1400 1399 1398 1397 1396 1395 1394 1394 1393 1392 1391 1390 1389 1389
1440 1438 1430 1418 1415 1415 1420 1421 1413 1413 1413 1414 1417 1422 1417 1414 1414 1414 1413 1413 1412 1411 1410 1408 1407 1406 1405 1404 1403 1401 1400 1399 1398 1396 1395 1394 1393 1393 1392 1391 1389 1388 1387 1387
1434 1434 1424 1415 1413 1415 1423 1416 1409 1409 1409 1411 1413 1413 1412 1412 1412 1411 1411 1411 1410 1409 1408 1407 1406 1405 1404 1403 1402 1401 1400 1399 1397 1396 1395 1393 1392 1391 1390 1389 1388 1387 1386 1385
1429 1429 1422 1412 1413 1415 1413 1408 1408 1407 1407 1408 1409 1409 1410 1410 1410 1409 1409 1409 1409 1408 1407 1407 1406 1405 1403 1402 1402 1401 1399 1398 1396 1395 1394 1393 1391 1390 1389 1388 1386 1385 1384 1383
1421 1417 1412 1410 1410 1409 1409 1408 1408 1407 1407 1407 1407 1407 1408 1408 1408 1408 1408 1408 1407 1407 1407 1406 1405 1404 1403 1402 1401 1400 1398 1397 1396 1395 1393 1392 1391 1389 1387 1386 1384 1383 1382 1380
1418 1412 1409 1408 1408 1408 1408 1408 1408 1407 1407 1406 1406 1406 1406 1407 1407 1407 1407 1407 1407 1406 1406 1405 1404 1404 1403 1402 1400 1399 1397 1396 1395 1393 1392 1391 1389 1388 1386 1384 1383 1381 1380 1379
1414 1410 1408 1405 1406 1406 1406 1406 1406 1406 1406 1406 1405 1405 1405 1405 1406 1406 1406 1406 1405 1405 1404 1404 1403 1403 1402 1401 1399 1398 1396 1395 1393 1392 1390 1389 1387 1386 1385 1383 1382 1381 1379 1378
1408 1405 1406 1403 1403 1404 1404 1404 1405 1404 1404 1404 1404 1404 1404 1404 1404 1404 1404 1404 1404 1404 1403 1403 1402 1401 1401 1400 1398 1397 1395 1393 1392 1390 1389 1387 1385 1384 1383 1382 1380 1379 1377 1376
1400 1400 1401 1400 1401 1401 1402 1402 1402 1402 1402 1402 1402 1402 1402 1403 1403 1403 1402 1402 1402 1401 1401 1401 1400 1400 1399 1398 1396 1395 1393 1392 1390 1389 1387 1386 1384 1382 1379 1378 1377 1376 1374 1373
1397 1398 1398 1398 1398 1398 1399 1399 1400 1400 1400 1400 1400 1400 1400 1401 1401 1401 1400 1400 1400 1400 1399 1399 1398 1398 1397 1396 1394 1393 1392 1390 1389 1387 1385 1383 1382 1380 1378 1375 1373 1371 1370 1369
1395 1395 1395 1394 1395 1395 1396 1396 1397 1397 1397 1397 1398 1398 1398 1398 1398 1398 1398 1398 1398 1397 1397 1396 1396 1395 1394 1393 1392 1390 1389 1387 1386 1384 1383 1381 1379 1377 1375 1373 1371 1369 1367 1366
1391 1391 1392 1392 1392 1392 1393 1393 1394 1394 1394 1395 1395 1395 1396 1396 1396 1396 1396 1396 1395 1394 1394 1393 1393 1392 1391 1390 1389 1388 1386 1385 1383 1381 1380 1378 1376 1375 1373 1371 1369 1367 1365 1363
1388 1388 1389 1389 1389 1389 1390 1391 1391 1391 1392 1392 1393 1393 1393 1394 1394 1394 1393 1393 1392 1392 1391 1391 1390 1389 1388 1387 1386 1384 1383 1381 1380 1378 1377 1375 1373 1372 1370 1368 1367 1365 1363 1362
1386 1386 1386 1386 1386 1387 1387 1388 1389 1389 1389 1390 1390 1391 1391 1391 1391 1390 1390 1390 1389 1389 1388 1388 1387 1386 1385 1384 1383 1381 1380 1378 1377 1375 1374 1372 1371 1369 1368 1366 1364 1362 1360 1359
1383 1383 1384 1384 1385 1385 1385 1386 1386 1386 1387 1388 1388 1388 1388 1388 1388 1388 1387 1387 1386 1385 1385 1385 1384 1382 1381 1380 1379 1378 1377 1375 1374 1372 1371 1369 1368 1366 1365 1363 1361 1360 1358 1356
1380 1381 1381 1382 1383 1383 1383 1384 1384 1384 1385 1385 1385 1385 1385 1385 1385 1385 1384 1384 1383 1383 1382 1381 1380 1379 1378 1377 1376 1375 1373 1372 1370 1369 1368 1366 1365 1363 1362 1360 1359 1357 1355 1354
1378 1379 1380 1380 1380 1381 1381 1382 1382 1382 1382 1383 1383 1382 1382 1383 1383 1382 1381 1380 1380 1380 1379 1378 1377 1375 1374 1373 1372 1371 1370 1369 1367 1366 1365 1363 1362 1360 1359 1357 1356 1354 1353 1351
1377 1377 1378 1378 1379 1379 1380 1380 1380 1380 1380 1380 1380 1380 1380 1380 1380 1379 1379 1378 1377 1376 1375 1374 1373 1372 1371 1370 1369 1368 1367 1366 1364 1363 1362 1360 1359 1357 1356 1354 1353 1351 1350 1348
1376 1377 1377 1377 1377 1377 1378 1379 1378 1378 1378 1378 1378 1378 1378 1377 1377 1376 1375 1375 1374 1373 1372 1371 1370 1369 1368 1367 1366 1364 1363 1362 1361 1360 1359 1357 1356 1354 1353 1351 1350 1349 1347 1346
1376 1377 1377 1377 1377 1377 1377 1377 1377 1377 1377 1377 1376 1376 1375 1375 1374 1374 1373 1372 1371 1370 1368 1367 1366 1365 1364 1363 1362 1361 1360 1358 1357 1356 1355 1354 1352 1351 1350 1348 1347 1346 1344 1343
1377 1377 1377 1377 1377 1377 1377 1376 1376 1376 1375 1375 1374 1374 1373 1372 1372 1370 1370 1368 1367 1366 1365 1364 1363 1362 1360 1359 1358 1357 1356 1355 1354 1352 1351 1350 1349 1348 1347 1345 1344 1343 1341 1340
1377 1377 1377 1377 1377 1377 1376 1376 1375 1375 1374 1373 1372 1372 1371 1370 1369 1368 1367 1365 1364 1363 1361 1360 1359 1358 1356 1355 1354 1353 1352 1351 1350 1349 1348 1347 1345 1344 1343 1342 1341 1340 1339 1337
1378 1378 1377 1377 1377 1376 1376 1375 1374 1374 1373 1372 1371 1370 1369 1367 1366 1365 1363 1362 1361 1359 1358 1356 1355 1354 1352 1351 1350 1349 1348 1347 1346 1345 1344 1343 1342 1341 1340 1339 1338 1337 1336 1335